Overview Statistics Trail Chart Weather Telemetry Raw packets
 

This is the latest recevied weather packets stored in our database for station/object KO4YAW. If no packets are shown the sender has not sent any weather packets the latest 10 day(s).

<< 4 5 6 7 8 9 10 >>
Time Temp. Humidity Pressure Rain* Wind** Luminosity Snow
1788540529 28.89° C 22% 1018.9 hPa 0 mm - 149 W/m² -
1788539629 27.78° C 23% 1018.9 hPa 0 mm - 331 W/m² -
1788538729 27.78° C 25% 1018.9 hPa 0 mm - 413 W/m² -
1788537829 26.67° C 28% 1018.9 hPa 0 mm - 529 W/m² -
1788536929 25.56° C 29% 1018.9 hPa 0 mm - 471 W/m² -
1788536029 25° C 32% 1018.9 hPa 0 mm - 49 W/m² -
1788535129 23.89° C 35% 1018.9 hPa 0 mm - 43 W/m² -
1788534229 23.33° C 37% 1019 hPa 0 mm - 47 W/m² -
1788533329 22.22° C 40% 1018.9 hPa 0 mm - 39 W/m² -
1788532429 21.67° C 41% 1018.8 hPa 0 mm - 38 W/m² -
1788531529 20.56° C 43% 1018.6 hPa 0 mm - 40 W/m² -
1788530644 19.44° C 43% 1018.6 hPa 0 mm - 22 W/m² -
1788529729 18.33° C 46% 1018.5 hPa 0 mm - 33 W/m² -
1788528829 18.33° C 45% 1018.4 hPa 0 mm - 35 W/m² -
1788527929 17.22° C 47% 1018 hPa 0 mm - 64 W/m² -
1788527029 16.67° C 50% 1017.9 hPa 0 mm - 21 W/m² -
1788526129 16.67° C 50% 1018 hPa 0 mm - 12 W/m² -
1788525229 16.11° C 51% 1017.8 hPa 0 mm - 3 W/m² -
1788524329 16.11° C 51% 1017.6 hPa 0 mm - 0 W/m² -
1788523429 16.11° C 51% 1017.6 hPa 0 mm - 0 W/m² -
1788522529 16.67° C 50% 1017.6 hPa 0 mm - 0 W/m² -
1788521629 16.67° C 49% 1017.6 hPa 0 mm - 0 W/m² -
1788520729 17.22° C 48% 1017.3 hPa 0 mm - 0 W/m² -
1788519829 17.78° C 45% 1017.3 hPa 0 mm - 0 W/m² -
1788518929 17.78° C 45% 1017.1 hPa 0 mm - 0 W/m² -

* Rain since midnight (hover to see other rain measurements)
** Current wind speed in m/s (hover to see current wind gust speed)